MDT,Max TemperatureF,Mean TemperatureF,Min TemperatureF,Max Dew PointF,MeanDew PointF,Min DewpointF,Max Humidity, Mean Humidity, Min Humidity, Max Sea Level PressureIn, Mean Sea Level PressureIn, Min Sea Level PressureIn, Max VisibilityMiles, Mean VisibilityMiles, Min VisibilityMiles, Max Wind SpeedMPH, Mean Wind SpeedMPH, Max Gust SpeedMPH,PrecipitationIn, CloudCover, Events, WindDirDegrees
2013-3-1,43,26,9,26,21,7,92,71,49,30.50,30.44,30.38,10,10,10,24,11,30,0.00,3,,335
2013-3-2,43,29,15,27,22,12,92,73,53,30.54,30.34,30.08,10,10,10,9,3,10,0.00,0,,89
2013-3-3,44,33,22,30,23,15,92,70,47,30.03,29.84,29.74,10,10,10,32,8,43,0.00,4,,301
2013-3-4,28,20,11,14,7,4,76,55,34,30.32,30.06,29.78,10,10,10,18,11,30,0.00,1,,354
2013-3-5,32,16,-1,14,5,-6,87,62,36,30.44,30.31,30.17,10,10,10,8,2,9,0.00,0,,13
2013-3-6,47,29,11,31,21,8,88,64,40,30.15,29.94,29.83,10,8,1,24,5,29,T,5,Snow,256
2013-3-7,38,30,21,23,18,13,81,58,35,30.03,29.97,29.90,10,10,10,21,6,26,0.00,5,,15
2013-3-8,43,34,25,28,25,22,92,69,46,29.92,29.80,29.68,10,10,8,14,6,18,T,5,Snow,349
2013-3-9,45,34,22,22,18,11,88,58,27,30.17,29.87,29.66,10,10,10,25,11,31,0.00,0,,350
2013-3-10,48,30,12,18,12,7,88,54,19,30.30,30.20,30.10,10,10,10,26,10,30,0.00,0,,348
2013-3-11,44,34,23,25,20,13,78,62,45,30.10,30.07,30.02,10,10,10,28,12,35,0.00,2,,343
2013-3-12,47,34,20,25,22,16,88,63,38,30.27,30.20,30.08,10,10,10,17,6,21,0.00,2,,340
2013-3-13,57,39,21,29,24,19,92,60,27,30.37,30.30,30.22,10,10,10,18,4,23,0.00,0,,347
2013-3-14,59,40,21,27,24,19,92,58,23,30.38,30.26,30.14,10,10,10,13,2,16,0.00,0,,55
2013-3-15,61,42,23,28,22,17,85,52,19,30.18,30.03,29.94,10,10,10,22,6,28,0.00,0,,5
2013-3-16,50,35,20,22,16,8,84,52,19,29.96,29.88,29.71,10,10,10,23,7,30,0.00,0,,328
2013-3-17,35,24,13,27,16,8,85,62,39,29.98,29.74,29.57,10,7,1,39,16,49,T,5,Snow,297
2013-3-18,35,21,7,16,9,3,80,57,33,30.06,30.00,29.96,10,10,10,29,11,35,0.00,1,,296
2013-3-19,41,27,13,5,-2,-12,64,37,10,30.32,30.19,30.03,10,10,10,21,10,28,0.00,0,,357
2013-3-20,41,27,13,30,21,1,100,70,39,30.22,29.99,29.79,10,6,0,9,3,10,T,7,Snow,81
2013-3-21,34,23,11,30,21,4,100,66,32,29.97,29.73,29.58,10,6,0,30,13,38,T,4,Fog-Snow,328
2013-3-22,29,18,6,16,8,-1,84,60,35,29.95,29.88,29.77,10,7,0,17,5,22,0.02,5,Fog-Snow,9
2013-3-23,24,13,1,14,9,-3,88,67,45,30.26,30.03,29.86,10,5,1,25,9,29,0.01,5,Snow,345
2013-3-24,27,12,-3,6,0,-6,83,58,32,30.33,30.26,30.07,10,10,10,18,7,24,0.00,2,,358
2013-3-25,33,15,-4,11,3,-8,86,58,30,30.40,30.29,30.18,10,10,10,10,4,13,0.00,0,,113
2013-3-26,42,27,12,28,17,9,100,73,45,30.17,30.06,29.97,10,10,8,14,3,17,T,4,,46
2013-3-27,49,34,18,27,22,16,100,69,38,30.09,30.05,30.01,10,10,10,16,4,21,0.00,4,,343
2013-3-28,56,37,18,30,23,17,92,61,29,30.17,30.08,30.01,10,10,10,17,4,21,T,3,,35
2013-3-29,54,40,26,31,27,24,92,64,35,30.17,30.11,30.04,10,10,10,22,6,28,0.00,4,,339
2013-3-30,53,36,19,30,21,17,100,63,26,30.20,30.16,30.12,10,10,10,23,9,31,0.00,0,,354
2013-3-31,60,38,16,20,16,11,84,50,15,30.17,30.07,29.96,10,10,10,16,6,33,0.00,0,,350